[[{"header":{"parameterUnit":"m.s-1","parameterCategory":1,"la1":30.2991,"la2":30.254,"lo1":-89.0895,"lo2":-89.0444,"dy":0.0017,"dx":0.0017,"nx":28,"ny":28,"refTime":"2025-07-03T09:00:00:Z","depth":0,"parameterNumber":2,"parameterNumberName":"U-component_of_WINDS"},"data":[0,0,0,0,0,0,0,0,0,0,0,0,0,0,0,0,0,0,0,0,0,0,0,0,0,0,0,0,0,0,0,0,0,0,0,0,0,0,0,0,0,0,0,0,0,0,0,0,0,0,0,0,0,0,0,0,0,0,0.1683,0.1684,0,0.1704,0.1704,0.1704,0.1701,0.1701,0.1701,0.17,0.172,0.1721,0.1722,0,0,0,0,0,0,0,0,0,0,0,0,0,0.1642,0.1643,0.1683,0.1684,0.1684,0.1704,0.1704,0.1705,0.1701,0.1701,0.1701,0.17,0.172,0.1721,0.1722,0,0,0,0,0,0,0,0,0,0,0,0,0,0.1661,0.1643,0.1683,0.1685,0.1685,0.1704,0.1704,0.1705,0.1702,0.1701,0.1701,0.17,0.172,0.1721,0.1722,0.1741,0,0,0.1726,0.1727,0,0,0,0,0,0,0,0,0.166,0.1662,0.1684,0.1685,0.1685,0.17,0.1697,0.1717,0.1702,0.1695,0.17,0.17,0.1714,0.1716,0.1721,0.1741,0.1742,0.1726,0.1727,0.1728,0.1728,0,0,0,0,0,0,0,0.1659,0.1662,0.1692,0.1685,0.1685,0.1685,0.1687,0.1701,0.1707,0.1696,0.1696,0.1698,0.1714,0.1719,0.1721,0.1743,0.1726,0.1728,0.1728,0.1729,0.1781,0.1781,0,0,0,0,0,0,0.1657,0.1661,0.1691,0.1692,0.1671,0.1686,0.1688,0.1696,0.1707,0.1708,0.1699,0.1698,0.1717,0.172,0.1722,0.1744,0.1728,0.1729,0.173,0.178,0.1781,0.1781,0,0,0,0,0,0,0.1656,0.166,0.169,0.1676,0.168,0.1687,0.1695,0.1696,0.1701,0.1709,0.171,0.1703,0.1717,0.172,0.1736,0.1745,0.1729,0.1731,0.1779,0.178,0.1781,0.1789,0,0,0,0,0,0,0.1655,0.1659,0.1666,0.1677,0.1681,0.1704,0.1696,0.1697,0.1704,0.1703,0.1713,0.1715,0.1717,0.1734,0.1737,0.1746,0.1732,0.1779,0.178,0.1781,0.1788,0.179,0.1791,0,0,0,0,0,0.1653,0.1667,0.1666,0.167,0.1689,0.1704,0.1707,0.171,0.1705,0.1711,0.1717,0.1714,0.1744,0.1736,0.174,0.1749,0.1778,0.1779,0.1781,0.1787,0.1789,0.1791,0,0,0,0,0,0,0.1656,0.1668,0.1668,0.1685,0.1694,0.1704,0.1713,0.1712,0.1722,0.1721,0.1724,0.1726,0.1743,0.1748,0.1739,0.1768,0.176,0.1762,0.1763,0.1766,0.1768,0.1766,0.1733,0,0,0,0,0,0.1659,0.1671,0.168,0.1695,0.1699,0.1705,0.1712,0.1714,0.1723,0.1726,0.1732,0.1741,0.1752,0.176,0.177,0.1789,0.1791,0.1797,0.1799,0.1801,0.1802,0.1813,0.1816,0.1786,0.1786,0.1786,0,0,0.1665,0.1673,0.168,0.1696,0.1703,0.1714,0.1708,0.1721,0.1729,0.1728,0.1743,0.1749,0.1759,0.1777,0.1785,0.1781,0.1811,0.1802,0.1804,0.1804,0.1814,0.1817,0.182,0.1787,0.1787,0.1787,0,0,0.1681,0.1688,0.1701,0.1709,0.172,0.1724,0.1727,0.1738,0.1742,0.1758,0.1757,0.1768,0.1787,0.1794,0.1801,0.1822,0.182,0.1825,0.1835,0.1845,0.1848,0.185,0.1857,0.186,0.1827,0.1827,0.1827,0,0.1686,0.1704,0.1708,0.1721,0.1728,0.1728,0.1742,0.1749,0.1763,0.1768,0.1764,0.1789,0.1796,0.1815,0.1821,0.1826,0.183,0.1823,0.1847,0.1849,0.1851,0.1858,0.1861,0.1828,0.1828,0.1828,0.1828,0,0.171,0.1722,0.1732,0.1746,0.1754,0.1767,0.1774,0.1782,0.1783,0.1788,0.1805,0.1814,0.1827,0.1832,0.1833,0.1852,0.1849,0.1846,0.1839,0.1854,0.1861,0.1864,0.1828,0.1828,0.1828,0.1828,0,0,0.1726,0.1744,0.1747,0.1754,0.1767,0.1777,0.1791,0.1804,0.1811,0.1821,0.1833,0.185,0.1848,0.1855,0.1857,0.1867,0.1883,0.1863,0.1863,0.1866,0.1905,0.1906,0.1909,0.1883,0.1883,0.1884,0.1904,0,0.1743,0.1767,0.1772,0.1793,0.1805,0.1807,0.1819,0.1828,0.1834,0.1845,0.1851,0.1863,0.1859,0.1863,0.1873,0.1879,0.1891,0.1878,0.1893,0.1894,0.1889,0.1913,0.1914,0.1933,0.1907,0.1907,0.1907,0,0.1766,0.1777,0.1799,0.1812,0.1817,0.1828,0.1841,0.1852,0.1863,0.1867,0.1876,0.1877,0.1892,0.1885,0.1905,0.1896,0.1903,0.1908,0.1909,0.1909,0.1901,0.1913,0.1939,0.1941,0.1912,0.1911,0.1911,0,0.1775,0.1796,0.1813,0.1818,0.1834,0.1841,0.1848,0.1859,0.1867,0.1879,0.1884,0.1897,0.1904,0.1915,0.192,0.1915,0.194,0.1934,0.1943,0.1943,0.1947,0.1947,0.1973,0.1953,0.1953,0.1953,0.1953,0,0.1793,0.1806,0.1817,0.1827,0.1842,0.1849,0.1864,0.187,0.1881,0.1892,0.1894,0.1905,0.1912,0.1924,0.1929,0.1945,0.1948,0.1951,0.1952,0.195,0.195,0.1954,0.1952,0.1954,0.1954,0.1954,0.1954,0,0.1805,0.1813,0.1831,0.1845,0.1848,0.1859,0.1871,0.1881,0.1887,0.1902,0.1906,0.1915,0.193,0.1937,0.1954,0.1957,0.1975,0.1976,0.1971,0.1972,0.1981,0.198,0.201,0.2014,0.1992,0.1992,0.1993,0,0.1815,0.1826,0.1841,0.1849,0.1856,0.1869,0.1878,0.1885,0.1894,0.1909,0.1917,0.1932,0.1943,0.1966,0.1975,0.1988,0.1989,0.1998,0.199,0.1989,0.1988,0.1987,0.1988,0.1999,0.1999,0.2,0.2,0,0.1832,0.1836,0.1849,0.1863,0.1873,0.1885,0.1896,0.1903,0.1912,0.1922,0.1937,0.1946,0.1965,0.1979,0.1994,0.2001,0.2002,0.2003,0.2005,0.2003,0.2,0.2002,0.1974,0.2001,0.2001,0.2001,0.2001,0.2001,0.1843,0.1853,0.1866,0.188,0.189,0.1901,0.1911,0.1919,0.1932,0.1948,0.1951,0.1967,0.198,0.2,0.2007,0.202,0.2018,0.2022,0.2023,0.2024,0.2024,0.1999,0.2023,0.2023,0.2023,0.2023,0.2023,0,0.186,0.1869,0.1882,0.1899,0.191,0.1911,0.1924,0.1934,0.1948,0.1959,0.1972,0.1989,0.2004,0.2014,0.2029,0.2037,0.2038,0.2041,0.204,0.2041,0.2025,0.2021,0.204,0.204,0.204,0.204,0.204,0.204,0.1871,0.1887,0.1893,0.1915,0.1924,0.1939,0.1947,0.1957,0.1967,0.1986,0.1999,0.2006,0.2017,0.2033,0.2047,0.205,0.2055,0.2057,0.206,0.2044,0.2042,0.2041,0.2037,0.2058,0.2058,0.2075,0.2075,0.2075]},{"header":{"parameterUnit":"m.s-1","parameterCategory":1,"la1":30.2991,"la2":30.254,"lo1":-89.0895,"lo2":-89.0444,"dy":0.0017,"dx":0.0017,"nx":28,"ny":28,"refTime":"2025-07-03T09:00:00:Z","depth":0,"parameterNumber":3,"parameterNumberName":"V-component_of_WINDS"},"data":[0,0,0,0,0,0,0,0,0,0,0,0,0,0,0,0,0,0,0,0,0,0,0,0,0,0,0,0,0,0,0,0,0,0,0,0,0,0,0,0,0,0,0,0,0,0,0,0,0,0,0,0,0,0,0,0,0,0,-2.7299,-2.7299,0,-2.7294,-2.7294,-2.7294,-2.7255,-2.7254,-2.7253,-2.7252,-2.7246,-2.7246,-2.7247,0,0,0,0,0,0,0,0,0,0,0,0,0,-2.7273,-2.7274,-2.7299,-2.7299,-2.7299,-2.7295,-2.7294,-2.7294,-2.7255,-2.7254,-2.7253,-2.7251,-2.7245,-2.7246,-2.7247,0,0,0,0,0,0,0,0,0,0,0,0,0,-2.7278,-2.7274,-2.7299,-2.7279,-2.7277,-2.7295,-2.7294,-2.7294,-2.7255,-2.7254,-2.7252,-2.7251,-2.7245,-2.7246,-2.7247,-2.7284,0,0,-2.7251,-2.7251,0,0,0,0,0,0,0,0,-2.7278,-2.7279,-2.7282,-2.728,-2.7278,-2.7274,-2.7283,-2.7291,-2.7256,-2.7263,-2.7252,-2.725,-2.7256,-2.7256,-2.7259,-2.7283,-2.7283,-2.7251,-2.7252,-2.7252,-2.7252,0,0,0,0,0,0,0,-2.7277,-2.7279,-2.7297,-2.7282,-2.728,-2.727,-2.7269,-2.7284,-2.7268,-2.7263,-2.726,-2.726,-2.7255,-2.7258,-2.7258,-2.7283,-2.7251,-2.7252,-2.7252,-2.7253,-2.734,-2.7341,0,0,0,0,0,0,-2.728,-2.7279,-2.7297,-2.7297,-2.7274,-2.7271,-2.727,-2.7277,-2.7268,-2.7265,-2.7261,-2.7258,-2.7256,-2.7257,-2.7258,-2.7301,-2.7252,-2.7253,-2.7254,-2.7338,-2.734,-2.7342,0,0,0,0,0,0,-2.728,-2.7282,-2.7297,-2.7287,-2.7288,-2.7273,-2.7281,-2.7277,-2.728,-2.7267,-2.7263,-2.7267,-2.7255,-2.7256,-2.7278,-2.73,-2.7254,-2.7255,-2.7336,-2.7339,-2.7341,-2.7388,0,0,0,0,0,0,-2.7279,-2.7282,-2.7296,-2.7288,-2.7289,-2.7318,-2.7282,-2.7278,-2.7282,-2.7278,-2.7271,-2.7269,-2.7254,-2.7277,-2.7279,-2.7301,-2.7255,-2.7334,-2.7337,-2.734,-2.7384,-2.7392,-2.7398,0,0,0,0,0,-2.7278,-2.7308,-2.7297,-2.7299,-2.7306,-2.7319,-2.732,-2.7303,-2.7284,-2.7298,-2.729,-2.7269,-2.7298,-2.7279,-2.7282,-2.7304,-2.7332,-2.7336,-2.734,-2.7381,-2.739,-2.7398,0,0,0,0,0,0,-2.7318,-2.7307,-2.7294,-2.7322,-2.7322,-2.7313,-2.7329,-2.7313,-2.7318,-2.7314,-2.7292,-2.7291,-2.7317,-2.7312,-2.7292,-2.734,-2.7312,-2.7316,-2.7342,-2.735,-2.7357,-2.7358,-2.7256,0,0,0,0,0,-2.733,-2.7342,-2.7332,-2.7358,-2.7359,-2.7344,-2.7349,-2.7337,-2.7336,-2.7335,-2.7328,-2.7328,-2.7337,-2.7343,-2.7351,-2.7383,-2.7382,-2.74,-2.7407,-2.7413,-2.7417,-2.7436,-2.7444,-2.7354,-2.7354,-2.7354,0,0,-2.7355,-2.735,-2.7359,-2.7366,-2.7364,-2.7378,-2.7344,-2.7359,-2.737,-2.7337,-2.7358,-2.7354,-2.7352,-2.738,-2.7392,-2.7377,-2.7442,-2.7417,-2.7422,-2.7423,-2.744,-2.7449,-2.7457,-2.7356,-2.7356,-2.7355,0,0,-2.7408,-2.7405,-2.7428,-2.7427,-2.7426,-2.7417,-2.7422,-2.7416,-2.7412,-2.7433,-2.741,-2.7421,-2.7436,-2.7437,-2.7439,-2.7494,-2.7476,-2.7497,-2.7533,-2.7552,-2.7559,-2.7565,-2.7586,-2.7594,-2.7501,-2.7501,-2.7502,0,-2.7439,-2.7459,-2.7441,-2.7459,-2.7463,-2.7435,-2.7459,-2.7459,-2.746,-2.7464,-2.7447,-2.7468,-2.7464,-2.7493,-2.7507,-2.7509,-2.7515,-2.7498,-2.7559,-2.7565,-2.7571,-2.7591,-2.7599,-2.7504,-2.7504,-2.7504,-2.7503,0,-2.7498,-2.7512,-2.753,-2.7534,-2.754,-2.756,-2.7546,-2.7554,-2.7541,-2.7534,-2.7556,-2.7551,-2.7558,-2.7564,-2.7551,-2.7591,-2.7583,-2.7563,-2.7534,-2.7583,-2.7601,-2.7609,-2.7508,-2.7507,-2.7506,-2.7506,0,0,-2.7574,-2.7569,-2.7577,-2.7579,-2.7577,-2.7587,-2.7607,-2.7614,-2.7623,-2.7625,-2.7641,-2.7656,-2.7639,-2.7641,-2.7628,-2.7644,-2.7691,-2.7623,-2.7623,-2.7637,-2.7737,-2.7753,-2.7762,-2.7678,-2.768,-2.7681,-2.7738,0,-2.7626,-2.766,-2.7646,-2.7681,-2.7695,-2.767,-2.7687,-2.7688,-2.7682,-2.7692,-2.7685,-2.7697,-2.7672,-2.7674,-2.7689,-2.7682,-2.7711,-2.7677,-2.7694,-2.7695,-2.7696,-2.7771,-2.7787,-2.7841,-2.7745,-2.7746,-2.7747,0,-2.7691,-2.7698,-2.7735,-2.7733,-2.7738,-2.7753,-2.7761,-2.7771,-2.7772,-2.7766,-2.7771,-2.7754,-2.7774,-2.7745,-2.7771,-2.7749,-2.7755,-2.7753,-2.7755,-2.7756,-2.7724,-2.7776,-2.7857,-2.7866,-2.7758,-2.7757,-2.7756,0,-2.7745,-2.7763,-2.7789,-2.7791,-2.7788,-2.78,-2.7799,-2.7799,-2.7805,-2.7811,-2.7815,-2.7823,-2.7828,-2.7834,-2.7821,-2.7801,-2.7851,-2.782,-2.7847,-2.7848,-2.7859,-2.7859,-2.7944,-2.7861,-2.7861,-2.7861,-2.7861,0,-2.7806,-2.783,-2.7813,-2.7829,-2.7855,-2.7839,-2.7866,-2.7862,-2.7862,-2.7877,-2.7855,-2.7869,-2.785,-2.7863,-2.7852,-2.7877,-2.7879,-2.7875,-2.7872,-2.7878,-2.7879,-2.7882,-2.7878,-2.7863,-2.7863,-2.7862,-2.7862,0,-2.7871,-2.7861,-2.7887,-2.7883,-2.7882,-2.7902,-2.7899,-2.7913,-2.7906,-2.7925,-2.7929,-2.7918,-2.7931,-2.7919,-2.7931,-2.7924,-2.7958,-2.7949,-2.7958,-2.7956,-2.7985,-2.7983,-2.8076,-2.8088,-2.7996,-2.7997,-2.7998,0,-2.791,-2.7928,-2.7927,-2.7936,-2.7937,-2.7951,-2.7959,-2.7943,-2.7952,-2.7955,-2.7969,-2.7982,-2.7991,-2.8014,-2.8007,-2.8017,-2.8008,-2.8041,-2.801,-2.8015,-2.8011,-2.801,-2.8013,-2.8047,-2.8048,-2.8049,-2.805,0,-2.7982,-2.7977,-2.7988,-2.7999,-2.8008,-2.8015,-2.8021,-2.8029,-2.8014,-2.8024,-2.8039,-2.8046,-2.806,-2.8073,-2.8081,-2.808,-2.8063,-2.806,-2.8067,-2.8073,-2.8078,-2.8077,-2.7977,-2.8058,-2.8057,-2.8056,-2.8056,-2.8055,-2.8036,-2.8052,-2.8055,-2.8069,-2.8072,-2.8078,-2.8092,-2.8088,-2.81,-2.8111,-2.8101,-2.8119,-2.8121,-2.813,-2.8132,-2.8146,-2.8132,-2.8142,-2.8145,-2.8148,-2.8153,-2.8075,-2.8147,-2.8146,-2.8146,-2.8146,-2.8146,0,-2.8108,-2.8109,-2.8122,-2.8132,-2.8143,-2.8127,-2.8133,-2.8144,-2.816,-2.8164,-2.8174,-2.8191,-2.8204,-2.8199,-2.821,-2.8222,-2.8215,-2.8226,-2.8225,-2.8226,-2.8163,-2.8157,-2.8232,-2.8232,-2.8232,-2.8232,-2.8232,-2.8232,-2.8147,-2.8174,-2.817,-2.8198,-2.8199,-2.8217,-2.8222,-2.8228,-2.8231,-2.8252,-2.8263,-2.826,-2.8261,-2.8272,-2.8283,-2.8282,-2.8287,-2.8301,-2.8297,-2.8238,-2.823,-2.8222,-2.8216,-2.8303,-2.8303,-2.8359,-2.8359,-2.836]}]]